Flag for Germany Weather past 2 weeks in Hofheim am Taunus, Hesse, Germany

Now
77 °F

Partly sunny.


Feels Like: 79 °F
Forecast: 65 / 77 °F
Wind: 5 mph from South

Location: Wiesbaden Airport

Current Time: Jul 29, 2014 at 4:57:09 PM

Latest Report: Jul 29, 2014 at 3:58 PM


Visibility: N/A

Pressure: 29.75 "Hg

Humidity: 68%

Dew point: 66 °F

Location of Hofheim am TaunusLocation

Historic Weather in Hofheim am Taunus — Graph

°F

Hofheim am Taunus temperature yesterday

Maximum temperature yesterday: 83 °F (at 2:58 PM)
Minimum temperature yesterday: 63 °F (at 5:58 AM)
Average temperature yesterday: 72 °F

Past Weeks' High & Low Weather Summary

 TemperatureHumidityPressure
High92 °F (Jul 19, 4:58 PM)100% (Jul 21, 2:58 AM)30.19 "Hg (Jul 21, 2:58 AM)
Low59 °F (Jul 15, 5:55 AM)25% (Jul 18, 6:58 PM)29.75 "Hg (Jul 29, 2:58 PM)
Average73 °F66%29.95 "Hg
* Reported Jul 14 2:55 PM — Jul 29 2:58 PM, Hofheim am Taunus, Weather by CustomWeather, © 2014

Note: Actual official high and low records may vary slightly from our data, if they occured in-between our weather recording intervals... More about our weather records

Advertising

Hofheim am Taunus weather history for previous 24 hours

 ConditionsComfort  
Time TempWeatherWind HumidityBarometerVisibility
2:58 PM
Jul 29
76 °FThundershowers. Scattered clouds.3 mph67%29.75 "HgN/A
1:55 PM79 °FThunderstorms. Partly sunny.7 mph65%29.76 "HgN/A
12:59 PM79 °FPassing clouds.1 mph61%29.79 "HgN/A
12:00 PM75 °FScattered clouds.7 mph69%29.78 "HgN/A
9:58 AM73 °FPartly sunny.3 mph78%29.79 "HgN/A
8:58 AM71 °FPassing clouds.3 mph83%29.79 "HgN/A
7:58 AM70 °FScattered clouds.No wind84%29.78 "HgN/A
6:58 AM66 °FSunny.No wind94%29.76 "HgN/A
5:58 AM67 °FPassing clouds.1 mph90%29.77 "HgN/A
4:58 AM66 °FOvercast.3 mph90%29.77 "HgN/A
3:58 AM66 °FPassing clouds.6 mph94%29.78 "HgN/A
2:58 AM66 °FOvercast.8 mph88%29.78 "HgN/A
1:58 AM66 °FOvercast.2 mph94%29.80 "HgN/A
12:58 AM66 °FPartly cloudy.6 mph94%29.80 "HgN/A
12:01 AM66 °FPassing clouds.12 mph88%29.79 "HgN/A
11:58 PM
Jul 28
67 °FPassing clouds.13 mph89%29.79 "HgN/A
10:59 PM70 °FPassing clouds.5 mph78%29.82 "HgN/A
10:58 PM70 °FPartly cloudy.7 mph78%29.81 "HgN/A
9:58 PM70 °FPartly sunny.5 mph78%29.81 "HgN/A
8:58 PM70 °FOvercast.12 mph78%29.78 "HgN/A
7:58 PM72 °FPartly sunny.8 mph78%29.80 "HgN/A
6:58 PM73 °FScattered clouds.5 mph76%29.79 "HgN/A
6:04 PM72 °FScattered clouds.6 mph69%29.81 "HgN/A
4:58 PM80 °FSunny.8 mph62%29.79 "HgN/A
Weather by CustomWeather, © 2014

See weather overviewHow to use our weather pages